Princeton, MN

9:23 PM CST on December 08, 2019 (GMT -0600)
Princeton Municipal

Weather History for KPNM - July, 2019

Change the Weather History Date:

Friday, July 19, 2019

  Actual Average Record
Temperature  
Mean Temperature 78 °F -  
Max Temperature 89 °F 79 °F 93 °F (2011)
Min Temperature 66 °F 57 °F 46 °F (2005)
Cooling Degree Days 12    
Growing Degree Days 28 (Base 50)    
Moisture  
Dew Point 71 °F    
Average Humidity 85    
Maximum Humidity 100    
Minimum Humidity 59    
Precipitation  
Precipitation 0.00 in - - ()
Sea Level Pressure  
Sea Level Pressure 29.69 in    
Wind  
Wind Speed 3 mph (NE)    
Max Wind Speed 16 mph    
Max Gust Speed 26 mph    
Visibility 8 miles    
Events Fog , Rain , Thunderstorm    
Averages and records for this station are not official NWS values.
T = Trace of Precipitation, MM = Missing Value Source: NWS Daily Summary

Daily Weather History Graph

Daily Weather History Graph

Search for Another Location

Airport or City:

Astronomy

Jul. 19, 2019 Rise Set
Actual Time 5:43 AM CDT 8:57 PM CDT
Civil Twilight 5:07 AM CDT 9:33 PM CDT
Nautical Twilight 4:20 AM CDT 10:19 PM CDT
Astronomical Twilight 3:22 AM CDT 11:16 PM CDT
Moon 10:49 PM CDT (7/19) 8:15 AM CDT (7/19)
Length of Visible Light 16h 25m
Length of Day
15h 13m
Waning Gibbous, 93% of the Moon is Illuminated
Jul 19
Waning Gibbous
Jul 24
Last Quarter
Jul 31
New
Aug 7
First Quarter
Aug 15
Full

Hourly Weather History & Observations

Time (CDT) Temp. Heat Index Dew Point Humidity Pressure Visibility Wind Dir Wind Speed Gust Speed Precip Events Conditions
12:16 AM 71.6 °F - 69.8 °F 94% 29.68 in 1.5 mi Calm Calm - N/A   Clear
12:35 AM 71.6 °F - 69.8 °F 94% 29.69 in 1.5 mi Calm Calm - N/A   Clear
12:55 AM 71.6 °F - 69.8 °F 94% 29.69 in 2.5 mi Calm Calm - N/A   Clear
1:19 AM 71.6 °F - 69.8 °F 94% 29.69 in 10.0 mi Calm Calm - N/A   Clear
1:37 AM 69.8 °F - 69.8 °F 100% 29.68 in 1.5 mi Calm Calm - N/A   Clear
1:55 AM 69.8 °F - 68.0 °F 94% 29.69 in 1.2 mi Calm Calm - N/A   Clear
2:15 AM 69.8 °F - 68.0 °F 94% 29.69 in 0.2 mi Calm Calm - N/A Fog Fog
2:35 AM 69.8 °F - 68.0 °F 94% 29.69 in 0.5 mi Calm Calm - N/A Fog Fog
2:40 AM 69.8 °F - 68.0 °F 94% 29.68 in 0.8 mi Calm Calm - N/A   Mostly Cloudy
2:58 AM 68.0 °F - 66.2 °F 94% 29.68 in 0.8 mi Calm Calm - N/A   Mist
3:16 AM 69.8 °F - 68.0 °F 94% 29.68 in 0.5 mi Calm Calm - N/A Fog Fog
3:35 AM 68.0 °F - 68.0 °F 100% 29.68 in 0.8 mi Calm Calm - N/A   Mist
3:36 AM 68.0 °F - 66.2 °F 94% 29.68 in 0.8 mi Calm Calm - N/A   Mist
3:55 AM 68.0 °F - 66.2 °F 94% 29.69 in 1.5 mi Calm Calm - N/A   Clear
3:56 AM 68.0 °F - 66.2 °F 94% 29.69 in 1.2 mi Calm Calm - N/A   Clear
4:19 AM 68.0 °F - 66.2 °F 94% 29.70 in 4.0 mi Calm Calm - N/A   Clear
4:37 AM 66.2 °F - 66.2 °F 100% 29.71 in 0.8 mi Calm Calm - N/A   Mist
4:55 AM 68.0 °F - 66.2 °F 94% 29.72 in 1.8 mi Calm Calm - N/A   Clear
5:15 AM 69.8 °F - 68.0 °F 94% 29.71 in 3.0 mi Calm Calm - N/A   Clear
5:35 AM 69.8 °F - 68.0 °F 94% 29.71 in 7.0 mi Calm Calm - N/A   Clear
5:58 AM 69.8 °F - 69.8 °F 100% 29.73 in 7.0 mi Calm Calm - N/A   Scattered Clouds
6:16 AM 69.8 °F - 69.8 °F 100% 29.74 in 5.0 mi Calm Calm - N/A   Clear
6:35 AM 69.8 °F - 69.8 °F 100% 29.76 in 5.0 mi Calm Calm - N/A   Clear
6:55 AM 71.6 °F - 71.6 °F 100% 29.76 in 7.0 mi Calm Calm - N/A   Clear
7:19 AM 73.4 °F - 73.4 °F 100% 29.74 in 7.0 mi ESE 3.5 mph - N/A   Clear
7:37 AM 75.2 °F - 73.4 °F 94% 29.75 in 10.0 mi Calm Calm - N/A   Clear
7:55 AM 77.0 °F - 75.2 °F 94% 29.75 in 10.0 mi Calm Calm - N/A   Clear
8:15 AM 78.8 °F - 73.4 °F 83% 29.76 in 10.0 mi Calm Calm - N/A   Clear
8:35 AM 78.8 °F - 73.4 °F 83% 29.74 in 10.0 mi East 3.5 mph - N/A   Clear
8:39 AM 78.8 °F - 73.4 °F 83% 29.74 in 10.0 mi East 3.5 mph - N/A   Clear
8:58 AM 80.6 °F 85.4 °F 73.4 °F 79% 29.73 in 10.0 mi East 5.8 mph - N/A   Clear
9:16 AM 80.6 °F 85.4 °F 73.4 °F 79% 29.73 in 10.0 mi East 4.6 mph - N/A   Clear
9:35 AM 82.4 °F 88.2 °F 73.4 °F 74% 29.72 in 10.0 mi East 6.9 mph - N/A   Clear
9:55 AM 84.2 °F 90.9 °F 73.4 °F 70% 29.71 in 10.0 mi East 8.1 mph - N/A   Clear
10:19 AM 84.2 °F 90.9 °F 73.4 °F 70% 29.71 in 10.0 mi East 9.2 mph - N/A   Clear
10:37 AM 84.2 °F 90.9 °F 73.4 °F 70% 29.70 in 10.0 mi East 6.9 mph - N/A   Clear
10:55 AM 82.4 °F 88.2 °F 73.4 °F 74% 29.71 in 10.0 mi ENE 5.8 mph - N/A   Clear
11:15 AM 82.4 °F 88.2 °F 73.4 °F 74% 29.74 in 10.0 mi North 3.5 mph - N/A   Clear
11:35 AM 82.4 °F 89.5 °F 75.2 °F 79% 29.75 in 10.0 mi North 5.8 mph - N/A Rain Light Rain
11:58 AM 82.4 °F 89.5 °F 75.2 °F 79% 29.76 in 10.0 mi North 9.2 mph - N/A   Clear
12:16 PM 84.2 °F 92.3 °F 75.2 °F 74% 29.74 in 10.0 mi North 9.2 mph - N/A   Clear
12:35 PM 82.4 °F 88.2 °F 73.4 °F 74% 29.75 in 10.0 mi North 11.5 mph - N/A   Clear
12:55 PM 80.6 °F 85.4 °F 73.4 °F 79% 29.67 in 10.0 mi East 12.7 mph 18.4 mph N/A   Clear
1:19 PM 80.6 °F 85.4 °F 73.4 °F 79% 29.65 in 10.0 mi ESE 15.0 mph 20.7 mph N/A   Clear
1:37 PM 82.4 °F 88.2 °F 73.4 °F 74% 29.65 in 10.0 mi ESE 10.4 mph 19.6 mph N/A   Clear
1:55 PM 82.4 °F 88.2 °F 73.4 °F 74% 29.66 in 10.0 mi ESE 10.4 mph 18.4 mph N/A   Clear
1:56 PM 82.4 °F 88.2 °F 73.4 °F 74% 29.65 in 10.0 mi ESE 10.4 mph 18.4 mph N/A   Clear
2:15 PM 87.8 °F 97.6 °F 75.2 °F 66% 29.64 in 10.0 mi ESE 12.7 mph 18.4 mph N/A   Clear
2:35 PM 87.8 °F 97.6 °F 75.2 °F 66% 29.63 in 10.0 mi ESE 15.0 mph 24.2 mph N/A   Clear
2:58 PM 89.6 °F 98.2 °F 73.4 °F 59% 29.60 in 10.0 mi SE 13.8 mph 18.4 mph N/A   Clear
3:16 PM 89.6 °F 99.8 °F 75.2 °F 62% 29.61 in 10.0 mi ESE 16.1 mph 23.0 mph N/A   Clear
3:35 PM 89.6 °F 99.8 °F 75.2 °F 62% 29.62 in 10.0 mi SSE 8.1 mph 20.7 mph N/A   Scattered Clouds
3:55 PM 87.8 °F 99.7 °F 77.0 °F 70% 29.60 in 10.0 mi SE 5.8 mph - N/A Thunderstorm Mostly Cloudy
4:19 PM 87.8 °F 102.5 °F 78.8 °F 75% 29.57 in 10.0 mi SSE 4.6 mph - N/A Thunderstorm Thunderstorm
4:36 PM 87.8 °F 102.5 °F 78.8 °F 75% 29.59 in 5.0 mi NW 12.7 mph - N/A Rain , Thunderstorm Heavy Thunderstorms and Rain
4:55 PM 80.6 °F 87.1 °F 77.0 °F 89% 29.61 in 4.0 mi North 11.5 mph 26.5 mph N/A Rain , Thunderstorm Thunderstorms and Rain
4:56 PM 80.6 °F 87.1 °F 77.0 °F 89% 29.61 in 4.0 mi North 10.4 mph 26.5 mph N/A Rain , Thunderstorm Light Thunderstorms and Rain
5:15 PM 78.8 °F - 75.2 °F 89% 29.60 in 10.0 mi North 11.5 mph - N/A Thunderstorm Thunderstorm
5:16 PM 78.8 °F - 75.2 °F 89% 29.60 in 10.0 mi North 11.5 mph - N/A Thunderstorm Thunderstorm
5:35 PM 78.8 °F - 73.4 °F 83% 29.63 in 10.0 mi North 13.8 mph 18.4 mph N/A Thunderstorm Mostly Cloudy
5:58 PM 78.8 °F - 73.4 °F 83% 29.60 in 10.0 mi North 12.7 mph - N/A Thunderstorm Scattered Clouds
6:16 PM 78.8 °F - 73.4 °F 83% 29.64 in 10.0 mi NNW 12.7 mph - N/A Thunderstorm Clear
6:35 PM 78.8 °F - 71.6 °F 78% 29.65 in 10.0 mi North 11.5 mph 17.3 mph N/A Thunderstorm Scattered Clouds
6:36 PM 78.8 °F - 71.6 °F 78% 29.65 in 10.0 mi North 12.7 mph 17.3 mph N/A Thunderstorm Scattered Clouds
6:55 PM 75.2 °F - 71.6 °F 89% 29.64 in 10.0 mi North 9.2 mph 16.1 mph N/A Thunderstorm Scattered Clouds
7:19 PM 75.2 °F - 71.6 °F 89% 29.66 in 10.0 mi North 9.2 mph - N/A   Scattered Clouds
7:37 PM 75.2 °F - 69.8 °F 83% 29.67 in 10.0 mi North 3.5 mph - N/A   Scattered Clouds
7:55 PM 75.2 °F - 69.8 °F 83% 29.68 in 10.0 mi NNW 5.8 mph - N/A   Scattered Clouds
7:56 PM 75.2 °F - 69.8 °F 83% 29.68 in 10.0 mi NW 4.6 mph - N/A   Scattered Clouds
8:15 PM 75.2 °F - 69.8 °F 83% 29.69 in 10.0 mi NNW 3.5 mph - N/A   Clear
8:16 PM 75.2 °F - 69.8 °F 83% 29.69 in 10.0 mi NNW 3.5 mph - N/A   Clear
8:35 PM 75.2 °F - 69.8 °F 83% 29.69 in 10.0 mi Calm Calm - N/A   Clear
8:57 PM 73.4 °F - 69.8 °F 88% 29.70 in 10.0 mi NNW 3.5 mph - N/A   Clear
9:16 PM 73.4 °F - 69.8 °F 88% 29.72 in 10.0 mi NNW 4.6 mph - N/A   Clear
9:35 PM 71.6 °F - 68.0 °F 88% 29.72 in 10.0 mi Calm Calm - N/A   Clear
9:55 PM 71.6 °F - 68.0 °F 88% 29.74 in 10.0 mi NNW 3.5 mph - N/A   Clear
9:56 PM 71.6 °F - 68.0 °F 88% 29.74 in 10.0 mi NNW 3.5 mph - N/A   Clear
10:19 PM 71.6 °F - 66.2 °F 83% 29.74 in 10.0 mi Calm Calm - N/A   Clear
10:37 PM 71.6 °F - 66.2 °F 83% 29.75 in 10.0 mi Calm Calm - N/A   Clear
10:55 PM 69.8 °F - 66.2 °F 88% 29.76 in 10.0 mi Calm Calm - N/A   Clear
11:15 PM 69.8 °F - 66.2 °F 88% 29.77 in 10.0 mi Calm Calm - N/A   Clear
11:16 PM 69.8 °F - 66.2 °F 88% 29.77 in 10.0 mi Calm Calm - N/A   Clear
11:35 PM 69.8 °F - 66.2 °F 88% 29.77 in 10.0 mi Calm Calm - N/A   Clear
11:40 PM 69.8 °F - 66.2 °F 88% 29.77 in 10.0 mi Calm Calm - N/A   Clear
11:58 PM 69.8 °F - 66.2 °F 88% 29.78 in 10.0 mi NW 3.5 mph - N/A   Clear